• In Belgien
  • Länderverzeichnis
  • Für 7 Tage
  • Wassertemperatur
  • Satellitenkarten
  • Wetterkarte
  • Widgets
  • user-avatar
    Anmelden

    Stündliche Wetter Jerewan

    Heute, 19 Oktober, Freitag

    Zeit Temperatur Niederschläge Wind Luftdruck Luftfeuchtigkeit
    00:00 +14°C° 0 mm 1 m/S 692 mmHg 59%
    01:00 +14°C° 0 mm 1 m/S 692 mmHg 61%
    02:00 +13°C° 0 mm 1 m/S 692 mmHg 64%
    03:00 +13°C° 0 mm 1 m/S 692 mmHg 66%
    04:00 +13°C° 0 mm 1 m/S 692 mmHg 67%
    05:00 +12°C° 0 mm 1 m/S 692 mmHg 68%
    06:00 +12°C° 0 mm 1 m/S 692 mmHg 69%
    07:00 +14°C° 0 mm 1 m/S 692 mmHg 59%
    08:00 +18°C° 0 mm 1 m/S 693 mmHg 49%
    09:00 +20°C° 0 mm 1 m/S 693 mmHg 39%
    10:00 +21°C° 0 mm 1 m/S 693 mmHg 36%
    11:00 +22°C° 0 mm 1 m/S 693 mmHg 32%
    12:00 +23°C° 0 mm 2 m/S 693 mmHg 29%
    13:00 +24°C° 0 mm 2 m/S 692 mmHg 28%
    14:00 +24°C° 0 mm 2 m/S 692 mmHg 27%
    15:00 +24°C° 0 mm 2 m/S 692 mmHg 27%
    16:00 +22°C° 0 mm 1 m/S 691 mmHg 31%
    17:00 +20°C° 0 mm 1 m/S 691 mmHg 36%
    18:00 +18°C° 0 mm 1 m/S 691 mmHg 41%
    19:00 +18°C° 0 mm 1 m/S 691 mmHg 43%
    20:00 +16°C° 0 mm 1 m/S 691 mmHg 44%
    21:00 +16°C° 0 mm 1 m/S 692 mmHg 46%
    22:00 +16°C° 0 mm 1 m/S 691 mmHg 47%
    23:00 +15°C° 0 mm 1 m/S 691 mmHg 48%

    Morgen, 20 Oktober, Samstag

    Zeit Temperatur Niederschläge Wind Luftdruck Luftfeuchtigkeit
    00:00 +15°C° 0 mm 1 m/S 691 mmHg 49%
    01:00 +14°C° 0 mm 1 m/S 691 mmHg 49%
    02:00 +14°C° 0 mm 1 m/S 691 mmHg 49%
    03:00 +14°C° 0 mm 1 m/S 691 mmHg 49%
    04:00 +14°C° 0.1 mm 1 m/S 691 mmHg 49%
    05:00 +13°C° 0.1 mm 1 m/S 691 mmHg 50%
    06:00 +13°C° 0.1 mm 1 m/S 691 mmHg 50%
    07:00 +15°C° 0.1 mm 1 m/S 691 mmHg 47%
    08:00 +18°C° 0.1 mm 1 m/S 692 mmHg 43%
    09:00 +21°C° 0.1 mm 1 m/S 692 mmHg 40%
    10:00 +21°C° 0.1 mm 2 m/S 692 mmHg 38%
    11:00 +23°C° 0.1 mm 2 m/S 691 mmHg 36%
    12:00 +24°C° 0.1 mm 2 m/S 691 mmHg 34%
    13:00 +24°C° 0 mm 2 m/S 691 mmHg 34%
    14:00 +24°C° 0 mm 2 m/S 690 mmHg 33%
    15:00 +24°C° 0 mm 2 m/S 690 mmHg 33%
    16:00 +23°C° 0.1 mm 2 m/S 690 mmHg 37%
    17:00 +20°C° 0.1 mm 2 m/S 690 mmHg 41%
    18:00 +19°C° 0.1 mm 1 m/S 689 mmHg 45%
    19:00 +19°C° 0.1 mm 1 m/S 690 mmHg 46%
    20:00 +19°C° 0.1 mm 1 m/S 690 mmHg 47%
    21:00 +18°C° 0.1 mm 1 m/S 690 mmHg 48%
    22:00 +18°C° 0.1 mm 1 m/S 690 mmHg 49%
    23:00 +16°C° 0.1 mm 1 m/S 690 mmHg 50%

    übermorgen, 21 Oktober, Sonntag

    Zeit Temperatur Niederschläge Wind Luftdruck Luftfeuchtigkeit
    00:00 +16°C° 0.1 mm 1 m/S 689 mmHg 51%
    01:00 +16°C° 0 mm 1 m/S 689 mmHg 52%
    02:00 +16°C° 0 mm 1 m/S 689 mmHg 53%
    03:00 +15°C° 0 mm 1 m/S 689 mmHg 54%
    04:00 +15°C° 0.1 mm 1 m/S 689 mmHg 55%
    05:00 +15°C° 0.1 mm 1 m/S 689 mmHg 56%
    06:00 +15°C° 0.1 mm 1 m/S 689 mmHg 57%
    07:00 +16°C° 0.1 mm 1 m/S 689 mmHg 52%
    08:00 +19°C° 0.1 mm 1 m/S 690 mmHg 48%
    09:00 +20°C° 0.1 mm 2 m/S 690 mmHg 44%
    10:00 +20°C° 0.1 mm 2 m/S 690 mmHg 43%
    11:00 +21°C° 0.1 mm 2 m/S 690 mmHg 42%
    12:00 +21°C° 0.1 mm 2 m/S 689 mmHg 40%
    13:00 +21°C° 0.3 mm 2 m/S 689 mmHg 41%
    14:00 +21°C° 0.3 mm 2 m/S 689 mmHg 42%
    15:00 +21°C° 0.3 mm 2 m/S 689 mmHg 43%
    16:00 +20°C° 0.1 mm 2 m/S 689 mmHg 46%
    17:00 +18°C° 0.1 mm 2 m/S 688 mmHg 50%
    18:00 +18°C° 0.1 mm 1 m/S 688 mmHg 53%
    19:00 +18°C° 0.1 mm 1 m/S 688 mmHg 54%
    20:00 +16°C° 0.1 mm 1 m/S 688 mmHg 55%
    21:00 +16°C° 0.1 mm 1 m/S 688 mmHg 55%
    22:00 +16°C° 0.1 mm 1 m/S 688 mmHg 57%
    23:00 +16°C° 0.1 mm 1 m/S 688 mmHg 59%

    22 Oktober, Montag

    Zeit Temperatur Niederschläge Wind Luftdruck Luftfeuchtigkeit
    00:00 +15°C° 0.1 mm 1 m/S 688 mmHg 60%
    01:00 +15°C° 0.1 mm 1 m/S 688 mmHg 62%
    02:00 +15°C° 0.1 mm 1 m/S 688 mmHg 64%
    03:00 +15°C° 0.1 mm 1 m/S 688 mmHg 66%
    04:00 +14°C° 0.1 mm 1 m/S 688 mmHg 69%
    05:00 +14°C° 0.1 mm 1 m/S 688 mmHg 72%
    06:00 +14°C° 0.1 mm 1 m/S 688 mmHg 74%
    07:00 +15°C° 0.1 mm 1 m/S 689 mmHg 68%
    08:00 +17°C° 0.1 mm 2 m/S 689 mmHg 61%
    09:00 +19°C° 0.1 mm 2 m/S 690 mmHg 55%
    10:00 +20°C° 0.1 mm 2 m/S 690 mmHg 51%
    11:00 +21°C° 0.1 mm 2 m/S 689 mmHg 47%
    12:00 +22°C° 0.1 mm 3 m/S 689 mmHg 44%
    13:00 +22°C° 0.1 mm 3 m/S 689 mmHg 43%
    14:00 +22°C° 0.1 mm 3 m/S 689 mmHg 42%
    15:00 +22°C° 0.1 mm 3 m/S 689 mmHg 41%
    16:00 +21°C° 0.1 mm 3 m/S 689 mmHg 45%
    17:00 +19°C° 0.1 mm 2 m/S 689 mmHg 50%
    18:00 +18°C° 0.1 mm 2 m/S 689 mmHg 54%
    19:00 +17°C° 0 mm 2 m/S 689 mmHg 56%
    20:00 +17°C° 0 mm 2 m/S 689 mmHg 57%
    21:00 +16°C° 0 mm 2 m/S 690 mmHg 58%
    22:00 +16°C° 0 mm 1 m/S 690 mmHg 58%
    23:00 +16°C° 0 mm 1 m/S 690 mmHg 59%

    23 Oktober, Dienstag

    Zeit Temperatur Niederschläge Wind Luftdruck Luftfeuchtigkeit
    00:00 +15°C° 0 mm 1 m/S 690 mmHg 60%
    01:00 +15°C° 0 mm 1 m/S 690 mmHg 61%
    02:00 +15°C° 0 mm 1 m/S 690 mmHg 62%
    03:00 +14°C° 0 mm 1 m/S 690 mmHg 63%
    04:00 +14°C° 0 mm 1 m/S 690 mmHg 64%
    05:00 +14°C° 0 mm 2 m/S 690 mmHg 65%
    06:00 +13°C° 0 mm 2 m/S 690 mmHg 66%
    07:00 +15°C° 0 mm 2 m/S 690 mmHg 60%
    08:00 +17°C° 0 mm 2 m/S 691 mmHg 54%
    09:00 +19°C° 0 mm 2 m/S 691 mmHg 47%
    10:00 +20°C° 0 mm 3 m/S 691 mmHg 44%
    11:00 +21°C° 0 mm 3 m/S 690 mmHg 41%
    12:00 +22°C° 0 mm 3 m/S 690 mmHg 38%
    13:00 +22°C° 0.1 mm 3 m/S 690 mmHg 38%
    14:00 +22°C° 0.1 mm 3 m/S 690 mmHg 39%
    15:00 +22°C° 0.1 mm 3 m/S 690 mmHg 39%
    16:00 +21°C° 0.2 mm 3 m/S 690 mmHg 44%
    17:00 +20°C° 0.2 mm 3 m/S 690 mmHg 48%
    18:00 +18°C° 0.2 mm 3 m/S 690 mmHg 52%
    19:00 +18°C° 0 mm 2 m/S 690 mmHg 55%
    20:00 +17°C° 0 mm 2 m/S 690 mmHg 58%
    21:00 +16°C° 0 mm 2 m/S 690 mmHg 61%
    22:00 +16°C° 0 mm 2 m/S 690 mmHg 62%
    23:00 +16°C° 0 mm 2 m/S 690 mmHg 64%

    24 Oktober, Mittwoch

    Zeit Temperatur Niederschläge Wind Luftdruck Luftfeuchtigkeit
    00:00 +15°C° 0 mm 2 m/S 690 mmHg 66%
    01:00 +15°C° 0 mm 2 m/S 690 mmHg 67%
    02:00 +15°C° 0 mm 2 m/S 690 mmHg 69%
    03:00 +14°C° 0 mm 2 m/S 690 mmHg 71%
    04:00 +14°C° 0 mm 2 m/S 690 mmHg 72%
    05:00 +14°C° 0 mm 2 m/S 690 mmHg 72%
    06:00 +14°C° 0 mm 2 m/S 689 mmHg 73%
    07:00 +15°C° 0 mm 2 m/S 690 mmHg 67%
    08:00 +17°C° 0 mm 2 m/S 690 mmHg 60%
    09:00 +19°C° 0 mm 3 m/S 690 mmHg 54%
    10:00 +20°C° 0 mm 3 m/S 689 mmHg 49%
    11:00 +21°C° 0 mm 3 m/S 689 mmHg 45%
    12:00 +22°C° 0 mm 4 m/S 688 mmHg 41%
    13:00 +22°C° 0 mm 4 m/S 688 mmHg 40%
    14:00 +23°C° 0 mm 4 m/S 687 mmHg 39%
    15:00 +23°C° 0 mm 4 m/S 687 mmHg 38%
    16:00 +21°C° 0.1 mm 3 m/S 686 mmHg 43%
    17:00 +20°C° 0.1 mm 3 m/S 686 mmHg 47%
    18:00 +18°C° 0.1 mm 2 m/S 686 mmHg 52%
    19:00 +18°C° 0.1 mm 2 m/S 686 mmHg 53%
    20:00 +17°C° 0.1 mm 2 m/S 686 mmHg 54%
    21:00 +17°C° 0.1 mm 2 m/S 686 mmHg 54%
    22:00 +17°C° 0.1 mm 2 m/S 686 mmHg 55%
    23:00 +17°C° 0.1 mm 2 m/S 685 mmHg 56%
    Mehr zeigen